Miscellaneous Local Product
Issued by NWS North Platte, NE

Home | Current Version | Previous Version | Graphics & Text | Print | Product List | Glossary On
Versions: 1 2 3 4 5 6 7 8 9 10 11 12 13 14 15 16 17 18 19 20 21 22 23 24 25 26 27 28 29 30 31 32 33 34 35 36 37 38 39 40 41 42 43 44 45 46 47 48 49 50
000
AXUS43 KLBF 280610
MISLBF


WESTERN AND NORTH CENTRAL NEBRASKA HOURLY WEATHER ROUNDUP
NATIONAL WEATHER SERVICE NORTH PLATTE NE
100 AM CDT THU APR 28 2016

NOTE: "FAIR" INDICATES FEW OR NO CLOUDS BELOW 12,000 FEET WITH NO
SIGNIFICANT WEATHER AND/OR OBSTRUCTIONS TO VISIBILITY.

NOTE: STATIONS NOT REPORTING VARIABLES SUCH AS SKY/WEATHER OR
PRESSURE ARE PROVIDED BY RAWS AND APRS NETWORKS AND ARE NOT UNDER
NATIONAL WEATHER SERVICE QUALITY CONTROL.

...OBSERVATIONS IN AND NEAR THE EASTERN PANHANDLE OF NEBRASKA...

CITY           SKY/WX    TMP DP  RH WIND       PRES   REMARKS
PINE RIDGE     LGT SNOW  31  29  92 NW8       29.91R FOG     WCI  23
CHADRON        CLOUDY    33  31  92 N10       29.94R WCI  25
ALLIANCE       CLOUDY    31  29  92 NW10      29.91R WCI  22
SIDNEY         PTCLDY    32  28  85 N16       29.90S WCI  21
CRESCENT LAKE    N/A     31  30  94 NW9         N/A  WCI  23
BIG SPRINGS      N/A     36  31  83 W3          N/A
$$

...OBSERVATIONS IN NORTHERN NEBRASKA AND FAR SOUTHERN SOUTH DAKOTA...

CITY           SKY/WX    TMP DP  RH WIND       PRES   REMARKS
WINNER         CLOUDY    39  36  89 N12       29.84R WCI  32
VALENTINE      CLOUDY    34  33  96 NW13      29.85R FOG     WCI  25
THEDFORD       LGT SNOW  34  33  96 NW9       29.85R WCI  26
AINSWORTH      LGT RAIN  36  35  99 NW10      29.82R WCI  28
O`NEILL        CLOUDY    42  40  95 N12G17    29.76S FOG
ORD            CLOUDY    40  38  93 NW18G26   29.75R WCI  31
BROKEN BOW     CLOUDY    36  33  89 NW20      29.79R WCI  25
VALENTINE NWR    N/A     33  33  99 NW13G21     N/A  WCI  24
BUTTE            N/A     39  38  97 NE12        N/A  WCI  32
HALSEY           N/A     32  28  84 NW7         N/A  WCI  26
CHAMBERS         N/A     41  40  98 W3G12       N/A
EWING            N/A     42  41  97 N5G12       N/A
$$

...OBSERVATIONS IN SOUTHWEST NEBRASKA AND FAR NORTHEAST COLORADO...

CITY           SKY/WX    TMP DP  RH WIND       PRES   REMARKS
IMPERIAL       CLEAR     35  30  82 NW13      29.90R WCI  26
OGALLALA       CLEAR     32  28  85 W7        29.91R WCI  26
NORTH PLATTE   CLOUDY    33  30  88 W13       29.86R WCI  24
MCCOOK         CLEAR     36  30  79 NW10      29.88R WCI  28
LEXINGTON      CLEAR     36  32  87 NW15      29.83S WCI  26
PAXTON           N/A     35  30  83 NW3         N/A
STAPLETON        N/A     33  31  94 CALM        N/A
GOTHENBURG       N/A     35  31  87 W6          N/A  WCI  30
CALLAWAY         N/A     34  31  90 NW16        N/A  WCI  24
$$

...OBSERVATIONS IN CENTRAL LINCOLN COUNTY AREA...

CITY           SKY/WX    TMP DP  RH WIND       PRES   REMARKS
N.P. AIRPORT   CLOUDY    33  30  88 W13       29.86R WCI  24
N.P. DOWNTOWN    N/A     33  30  89 W3G12       N/A
N.P. SOUTHEAST   N/A     33  29  86 MISG        N/A
N.P. HILLCREST   N/A     32  30  94 NW9         N/A  WCI  24
$$

...SOME OBSERVATIONS FROM AROUND THE REGION...

CITY           SKY/WX    TMP DP  RH WIND       PRES   REMARKS
DENVER         CLOUDY    38  25  59 NE12      29.93R WCI  30
LARAMIE        CLOUDY    26  24  92 N5        29.90R WCI  20
CHEYENNE       CLEAR     29  26  89 N9G17     29.90R WCI  20
SCOTTSBLUFF    CLOUDY    34  28  79 N12       29.93S WCI  25
RAPID CITY     CLOUDY    32  31  96 N17       29.94R WCI  21
BISMARCK       CLOUDY    41  35  79 W7        30.00S
PIERRE         CLOUDY    36  34  92 NE13      29.89R WCI  27
SIOUX FALLS    LGT RAIN  42  39  89 NE13      29.77R
OMAHA          CLOUDY    47  44  90 SE7       29.61S
GRAND ISLAND   CLOUDY    41  38  89 NW20      29.74R
KANSAS CITY    CLEAR     50  39  66 W15       29.71R
WICHITA        CLEAR     48  41  76 W5        29.82R
OKLAHOMA CITY  CLEAR     56  44  64 NE5       29.82R
DALLAS         MOCLDY    67  54  63 NE5       29.78S
AMARILLO       CLEAR     51  34  52 SE13      29.81S
DODGE CITY     CLOUDY    44  38  79 CALM      29.86R
HAYS           CLEAR     43  32  65 NW10      29.86R
GOODLAND       CLEAR     37  30  75 NW9       29.88R WCI  30
$$




USA.gov is the U.S. government's official web portal to all federal, state and local government web resources and services.